Overview Statistics Trail Chart Weather Telemetry Raw packets
 

This is the latest recevied weather packets stored in our database for station/object W4MLN-3. If no packets are shown the sender has not sent any weather packets the latest 10 day(s).

<< 45 46 47 48 49 50 51 >>
Time Temp. Humidity Pressure Rain* Wind** Luminosity Snow
1788198624 30° C 52% 1024.5 hPa 0 mm - - -
1788198324 30° C 51% 1024.5 hPa 0 mm - - -
1788198003 30° C 54% 1024.5 hPa 0 mm - - -
1788197703 30° C 52% 1024.6 hPa 0 mm - - -
1788197403 30° C 56% 1024.5 hPa 0 mm - - -
1788197124 29.44° C 54% 1024.6 hPa 0 mm - - -
1788196824 29.44° C 54% 1024.7 hPa 0 mm - - -
1788196503 29.44° C 54% 1024.7 hPa 0 mm - - -
1788196203 29.44° C 53% 1024.7 hPa 0 mm - - -
1788195903 29.44° C 55% 1024.7 hPa 0 mm - - -
1788195603 29.44° C 58% 1024.7 hPa 0 mm - - -
1788195321 29.44° C 56% 1024.7 hPa 0 mm - - -
1788195003 29.44° C 59% 1024.7 hPa 0 mm - - -
1788194703 29.44° C 56% 1024.8 hPa 0 mm - - -
1788194403 28.89° C 56% 1024.8 hPa 0 mm - - -
1788194103 28.89° C 57% 1024.9 hPa 0 mm - - -
1788193803 28.33° C 55% 1024.8 hPa 0 mm - - -
1788193524 28.33° C 56% 1024.8 hPa 0 mm - - -
1788193203 28.33° C 60% 1024.9 hPa 0 mm - - -
1788192903 27.78° C 58% 1024.9 hPa 0 mm - - -
1788192624 28.33° C 60% 1024.9 hPa 0 mm - - -
1788192303 28.33° C 61% 1024.9 hPa 0 mm - - -
1788192014 28.33° C 61% 1024.9 hPa 0 mm - - -
1788191703 27.78° C 62% 1024.9 hPa 0 mm - - -
1788191403 27.78° C 63% 1025 hPa 0 mm - - -

* Rain latest hour (hover to see other rain measurements)
** Current wind speed in m/s (hover to see current wind gust speed)